[[{"header":{"parameterUnit":"m.s-1","parameterCategory":1,"la1":30.2991,"la2":30.254,"lo1":-89.0895,"lo2":-89.0444,"dy":0.0017,"dx":0.0017,"nx":28,"ny":28,"refTime":"2025-11-06T09:00:00:Z","depth":0,"parameterNumber":2,"parameterNumberName":"U-component_of_WINDS"},"data":[0,0,0,0,0,0,0,0,0,0,0,0,0,0,0,0,0,0,0,0,0,0,0,0,0,0,0,0,0,0,0,0,0,0,0,0,0,0,0,0,0,0,0,0,0,0,0,0,0,0,0,0,0,0,0,0,0,0,0.4719,0.472,0,0.4764,0.4765,0.4765,0.476,0.4759,0.4758,0.4757,0.4803,0.4804,0.4806,0,0,0,0,0,0,0,0,0,0,0,0,0,0.4628,0.463,0.4719,0.472,0.472,0.4764,0.4765,0.4766,0.476,0.4759,0.4758,0.4757,0.4802,0.4804,0.4807,0,0,0,0,0,0,0,0,0,0,0,0,0,0.467,0.4631,0.4719,0.4723,0.4724,0.4764,0.4765,0.4766,0.476,0.4759,0.4758,0.4757,0.4801,0.4804,0.4807,0.4846,0,0,0.4815,0.4817,0,0,0,0,0,0,0,0,0.4668,0.4673,0.4722,0.4723,0.4724,0.4755,0.4749,0.4793,0.476,0.4746,0.4757,0.4756,0.4788,0.4792,0.4802,0.4848,0.485,0.4816,0.4817,0.4819,0.4819,0,0,0,0,0,0,0,0.4665,0.4671,0.4737,0.4722,0.4724,0.4722,0.4727,0.4758,0.4772,0.4747,0.4747,0.4752,0.4788,0.48,0.4803,0.4851,0.4816,0.4818,0.482,0.4821,0.4934,0.4935,0,0,0,0,0,0,0.4661,0.4669,0.4736,0.4738,0.4692,0.4725,0.473,0.4746,0.4772,0.4775,0.4753,0.4752,0.4795,0.48,0.4805,0.4854,0.4819,0.4821,0.4823,0.4932,0.4934,0.4935,0,0,0,0,0,0,0.4659,0.4667,0.4734,0.4704,0.4712,0.4728,0.4746,0.4748,0.4759,0.4777,0.4779,0.4763,0.4795,0.4801,0.4837,0.4856,0.4823,0.4825,0.4931,0.4933,0.4935,0.4952,0,0,0,0,0,0,0.4656,0.4666,0.4681,0.4704,0.4714,0.4765,0.4747,0.4749,0.4764,0.4763,0.4786,0.4789,0.4794,0.4832,0.4839,0.4859,0.4827,0.4929,0.4932,0.4934,0.495,0.4955,0.4958,0,0,0,0,0,0.4653,0.4684,0.4682,0.469,0.4733,0.4766,0.4771,0.4777,0.4766,0.4781,0.4793,0.4788,0.4852,0.4836,0.4844,0.4865,0.4928,0.4931,0.4934,0.4948,0.4954,0.4958,0,0,0,0,0,0,0.4662,0.4687,0.4685,0.4724,0.4743,0.4765,0.4784,0.4783,0.4805,0.4802,0.4809,0.4814,0.485,0.4861,0.4842,0.4905,0.4889,0.4893,0.4897,0.4902,0.4906,0.4903,0.483,0,0,0,0,0,0.4669,0.4693,0.4714,0.4746,0.4756,0.4768,0.4783,0.4786,0.4806,0.4813,0.4827,0.4847,0.4871,0.4887,0.4911,0.4952,0.4957,0.497,0.4974,0.4977,0.4981,0.5005,0.5012,0.4945,0.4945,0.4945,0,0,0.4682,0.4699,0.4714,0.4748,0.4763,0.4789,0.4775,0.4802,0.4822,0.4817,0.4852,0.4863,0.4885,0.4924,0.4942,0.4934,0.5001,0.4981,0.4984,0.4986,0.5009,0.5015,0.5021,0.4947,0.4947,0.4946,0,0,0.472,0.4735,0.4764,0.478,0.4804,0.4812,0.4819,0.4842,0.4849,0.4884,0.4882,0.4905,0.4947,0.4964,0.4977,0.5024,0.5021,0.5031,0.5053,0.5076,0.5082,0.5086,0.5104,0.511,0.5035,0.5035,0.5035,0,0.4734,0.4773,0.4779,0.4808,0.4824,0.4822,0.4852,0.4867,0.4897,0.4908,0.4899,0.4953,0.4967,0.501,0.5022,0.5033,0.5042,0.5028,0.508,0.5085,0.509,0.5107,0.5113,0.5036,0.5036,0.5036,0.5036,0,0.4789,0.4816,0.4837,0.4867,0.4885,0.4914,0.4926,0.4943,0.4945,0.4955,0.4992,0.5009,0.5037,0.5048,0.5049,0.5092,0.5087,0.5079,0.5063,0.5097,0.5113,0.512,0.5038,0.5037,0.5037,0.5037,0,0,0.4832,0.4868,0.4875,0.489,0.4916,0.4937,0.4967,0.4995,0.5011,0.5031,0.5057,0.5093,0.5087,0.5103,0.5106,0.5127,0.5164,0.5117,0.5117,0.5126,0.5213,0.5219,0.5227,0.5162,0.5163,0.5164,0.5212,0,0.4874,0.4927,0.4935,0.4981,0.5008,0.5007,0.5033,0.5053,0.5063,0.5086,0.5097,0.5124,0.5113,0.5123,0.5143,0.5155,0.5182,0.5152,0.5186,0.5188,0.5182,0.5235,0.5241,0.5285,0.5218,0.5219,0.522,0,0.4929,0.4953,0.5003,0.5028,0.5039,0.5062,0.5089,0.5112,0.5134,0.514,0.5159,0.516,0.5192,0.5174,0.5218,0.5197,0.5212,0.522,0.5222,0.5226,0.5206,0.5241,0.5299,0.5306,0.523,0.5229,0.5228,0,0.4957,0.5001,0.5038,0.505,0.5079,0.5096,0.5109,0.5131,0.5148,0.5171,0.5183,0.5209,0.5224,0.5245,0.5254,0.524,0.5298,0.5281,0.5304,0.5304,0.5316,0.5316,0.5379,0.5325,0.5325,0.5325,0.5325,0,0.5002,0.5033,0.5051,0.5073,0.5108,0.5117,0.5151,0.5163,0.5183,0.5208,0.5209,0.5232,0.5243,0.5268,0.5275,0.5311,0.5317,0.5323,0.5325,0.5324,0.5323,0.5334,0.5331,0.5326,0.5326,0.5326,0.5325,0,0.5039,0.5052,0.5092,0.5118,0.5125,0.515,0.5172,0.5193,0.5204,0.5236,0.5244,0.526,0.529,0.5302,0.5337,0.5342,0.5384,0.5383,0.5377,0.5378,0.5401,0.5399,0.5473,0.5484,0.5423,0.5423,0.5424,0,0.5067,0.5091,0.512,0.5138,0.5152,0.5179,0.5197,0.5208,0.5226,0.5255,0.5273,0.5303,0.5328,0.5376,0.5391,0.5419,0.5419,0.5443,0.5423,0.5421,0.542,0.5419,0.5422,0.5447,0.5447,0.5448,0.5448,0,0.5116,0.5123,0.5149,0.5178,0.52,0.5223,0.5245,0.5259,0.5273,0.5294,0.5325,0.5344,0.5382,0.5412,0.5441,0.5455,0.5454,0.5455,0.5462,0.5461,0.5457,0.546,0.5388,0.5453,0.5452,0.5452,0.5452,0.5451,0.515,0.5172,0.5197,0.5227,0.5245,0.5267,0.5289,0.5304,0.533,0.5362,0.5367,0.5401,0.5424,0.5463,0.5478,0.5505,0.5498,0.5508,0.5511,0.5513,0.5516,0.5452,0.551,0.551,0.551,0.551,0.5509,0,0.52,0.5217,0.5244,0.5277,0.5301,0.5299,0.5324,0.5344,0.5374,0.5396,0.5421,0.5458,0.5488,0.5506,0.5536,0.5554,0.5554,0.5561,0.556,0.5564,0.5519,0.551,0.5561,0.5561,0.5561,0.5561,0.5561,0.5561,0.5229,0.5267,0.5276,0.5324,0.534,0.5374,0.5389,0.5409,0.5427,0.5468,0.5493,0.5506,0.5527,0.5559,0.5586,0.5591,0.5602,0.561,0.5614,0.5572,0.5567,0.5562,0.5554,0.5612,0.5612,0.5657,0.5657,0.5657]},{"header":{"parameterUnit":"m.s-1","parameterCategory":1,"la1":30.2991,"la2":30.254,"lo1":-89.0895,"lo2":-89.0444,"dy":0.0017,"dx":0.0017,"nx":28,"ny":28,"refTime":"2025-11-06T09:00:00:Z","depth":0,"parameterNumber":3,"parameterNumberName":"V-component_of_WINDS"},"data":[0,0,0,0,0,0,0,0,0,0,0,0,0,0,0,0,0,0,0,0,0,0,0,0,0,0,0,0,0,0,0,0,0,0,0,0,0,0,0,0,0,0,0,0,0,0,0,0,0,0,0,0,0,0,0,0,0,0,3.2688,3.2688,0,3.2678,3.2678,3.2678,3.2705,3.2706,3.2707,3.2708,3.2696,3.2695,3.2694,0,0,0,0,0,0,0,0,0,0,0,0,0,3.273,3.2729,3.2688,3.2688,3.2688,3.2678,3.2678,3.2678,3.2705,3.2706,3.2707,3.2708,3.2696,3.2695,3.2693,0,0,0,0,0,0,0,0,0,0,0,0,0,3.2715,3.2729,3.2688,3.27,3.2701,3.2678,3.2678,3.2678,3.2705,3.2706,3.2707,3.2709,3.2697,3.2695,3.2693,3.2658,0,0,3.2688,3.2687,0,0,0,0,0,0,0,0,3.2716,3.2713,3.2699,3.2699,3.2701,3.2694,3.2689,3.2671,3.2705,3.2703,3.2708,3.2709,3.2694,3.2693,3.2688,3.2657,3.2657,3.2688,3.2687,3.2686,3.2686,0,0,0,0,0,0,0,3.2717,3.2714,3.2684,3.2698,3.27,3.2706,3.2705,3.2685,3.2692,3.2704,3.2706,3.2704,3.2695,3.269,3.2688,3.2656,3.2688,3.2687,3.2686,3.2685,3.2599,3.2598,0,0,0,0,0,0,3.2717,3.2715,3.2685,3.2684,3.2712,3.2704,3.2704,3.2695,3.2692,3.2693,3.2703,3.2705,3.2692,3.269,3.2688,3.2648,3.2686,3.2685,3.2684,3.26,3.2599,3.2597,0,0,0,0,0,0,3.2717,3.2714,3.2685,3.27,3.2697,3.2702,3.2693,3.2694,3.2689,3.2692,3.2693,3.2697,3.2693,3.269,3.2666,3.2648,3.2684,3.2683,3.2602,3.26,3.2598,3.2566,0,0,0,0,0,0,3.2718,3.2714,3.27,3.2699,3.2696,3.2663,3.2691,3.2693,3.2686,3.2689,3.2686,3.2686,3.2694,3.2668,3.2664,3.2646,3.2681,3.2603,3.2601,3.2598,3.2569,3.2563,3.2559,0,0,0,0,0,3.272,3.269,3.2699,3.2695,3.2679,3.2662,3.266,3.2669,3.2685,3.2671,3.2674,3.2687,3.265,3.2665,3.2661,3.2642,3.2604,3.2601,3.2599,3.2571,3.2565,3.2559,0,0,0,0,0,0,3.2687,3.269,3.27,3.267,3.2666,3.2667,3.265,3.2661,3.2652,3.2655,3.2666,3.2665,3.2639,3.2638,3.2655,3.2609,3.263,3.2626,3.2611,3.2604,3.2599,3.26,3.268,0,0,0,0,0,3.2677,3.2663,3.2666,3.2639,3.2637,3.2644,3.2636,3.2644,3.264,3.2638,3.2638,3.2633,3.2621,3.2613,3.2601,3.2569,3.257,3.2554,3.2549,3.2545,3.2542,3.2527,3.2521,3.2588,3.2588,3.2588,0,0,3.2654,3.2655,3.2645,3.2633,3.263,3.2616,3.2642,3.2625,3.2615,3.2635,3.2613,3.2613,3.2609,3.2581,3.2569,3.2579,3.2524,3.2541,3.2538,3.2537,3.2523,3.2517,3.2511,3.2586,3.2586,3.2586,0,0,3.2607,3.2605,3.2584,3.2581,3.2578,3.2583,3.2578,3.2578,3.2579,3.2557,3.2573,3.2561,3.2539,3.2536,3.2532,3.2486,3.2498,3.2482,3.2455,3.2441,3.2436,3.2431,3.2417,3.2411,3.2478,3.2478,3.2478,0,3.2579,3.2559,3.2571,3.2554,3.2549,3.2568,3.2547,3.2544,3.2537,3.2533,3.2545,3.252,3.2518,3.2491,3.248,3.2475,3.2471,3.2482,3.2436,3.2431,3.2427,3.2413,3.2408,3.2476,3.2477,3.2477,3.2477,0,3.2526,3.2512,3.2495,3.2489,3.2482,3.2463,3.2472,3.2464,3.2473,3.2477,3.2456,3.2455,3.2445,3.2439,3.2446,3.2413,3.242,3.2434,3.2455,3.2419,3.2406,3.2401,3.2474,3.2474,3.2475,3.2475,0,0,3.2456,3.246,3.2453,3.2452,3.2451,3.244,3.2423,3.2414,3.2408,3.2402,3.2389,3.2371,3.2385,3.2379,3.2387,3.2375,3.2341,3.239,3.239,3.2382,3.2307,3.2298,3.2291,3.2349,3.2348,3.2348,3.2308,0,3.2411,3.2382,3.2393,3.2363,3.2351,3.2371,3.2356,3.2354,3.2358,3.2348,3.2352,3.2341,3.2358,3.2356,3.2344,3.2348,3.2326,3.235,3.2338,3.2337,3.2339,3.2284,3.2274,3.2236,3.2303,3.2302,3.2301,0,3.2353,3.2348,3.2317,3.2321,3.2317,3.2303,3.2297,3.2288,3.2286,3.229,3.2286,3.2298,3.2282,3.2303,3.2282,3.2298,3.2294,3.2295,3.2294,3.2294,3.2317,3.2284,3.2224,3.2219,3.2293,3.2294,3.2295,0,3.2308,3.2292,3.2273,3.2271,3.2274,3.2265,3.2266,3.2266,3.2261,3.2256,3.2253,3.2246,3.2242,3.2237,3.2246,3.2261,3.2224,3.2246,3.2228,3.2228,3.222,3.222,3.216,3.2215,3.2215,3.2215,3.2215,0,3.2256,3.2237,3.2253,3.2241,3.2221,3.2234,3.2214,3.2217,3.2217,3.2207,3.2223,3.2212,3.2225,3.2217,3.2224,3.2207,3.2204,3.2208,3.221,3.2207,3.2207,3.2204,3.2208,3.2214,3.2214,3.2214,3.2215,0,3.2201,3.2211,3.2191,3.2197,3.2198,3.2183,3.2188,3.2178,3.2184,3.217,3.2168,3.2177,3.2168,3.2177,3.2168,3.2173,3.215,3.2156,3.2151,3.2153,3.2135,3.2137,3.2072,3.2065,3.2123,3.2123,3.2122,0,3.2168,3.2154,3.2159,3.2154,3.2154,3.2145,3.2141,3.2154,3.2149,3.2148,3.2138,3.2131,3.2125,3.211,3.2116,3.211,3.2116,3.2094,3.2115,3.2113,3.2118,3.2119,3.2118,3.2089,3.2089,3.2088,3.2088,0,3.2109,3.2115,3.2109,3.2104,3.2099,3.2096,3.2095,3.2089,3.2103,3.2097,3.2088,3.2084,3.2077,3.2069,3.2065,3.2067,3.208,3.2081,3.2077,3.2074,3.2072,3.2074,3.214,3.2082,3.2083,3.2083,3.2084,3.2084,3.2065,3.2054,3.2057,3.205,3.2051,3.2049,3.2041,3.2047,3.204,3.2035,3.2043,3.2033,3.2035,3.2031,3.2031,3.2024,3.2033,3.2027,3.2025,3.2024,3.2022,3.2073,3.2023,3.2023,3.2023,3.2023,3.2024,0,3.2008,3.2011,3.2004,3.2003,3.1998,3.2012,3.2011,3.2006,3.1997,3.1998,3.1993,3.1984,3.1978,3.1985,3.198,3.1973,3.1979,3.1972,3.1973,3.1973,3.2013,3.2018,3.1967,3.1967,3.1967,3.1967,3.1967,3.1967,3.1977,3.1961,3.1968,3.1953,3.1957,3.1948,3.1947,3.1946,3.1947,3.1937,3.1932,3.1937,3.1941,3.1937,3.1932,3.1935,3.1933,3.1923,3.1927,3.1964,3.197,3.1975,3.198,3.1922,3.1922,3.1889,3.1888,3.1888]}]]